Orbital elements of CZ-4C DEB
| Launched | 9 April 2018 |
| Flight ended | – |
| Launch site | Jiuquan Space Center, PRC |
| Owner | People's Republic of China |
| NORAD ID | 43338 |
| Date fetched |
Epoch osculation |
Inc. [°] |
Ecc. | RA asc node [hr] |
Arg Peri. [°] |
Mean anom [°] |
Mean motion [rev/day] |
Abs. mag |
| Date fetched |
Epoch osculation |
Inc. [°] |
Ecc. | RA asc node [hr] |
Arg Peri. [°] |
Mean anom [°] |
Mean motion [rev/day] |
Abs. mag |
| 2026 May 04 17:57 | 2026 Apr 28 13:21:13 | 63.3947 | 0.02706 | 15.1536 | 8.1052 | 352.4215 | 13.44721 | – |
| 2026 May 03 17:57 | 2026 Apr 28 13:21:13 | 63.3947 | 0.02706 | 15.1536 | 8.1052 | 352.4215 | 13.44721 | – |
| 2026 May 02 17:57 | 2026 Apr 28 13:21:13 | 63.3947 | 0.02706 | 15.1536 | 8.1052 | 352.4215 | 13.44721 | – |
| 2026 May 01 17:56 | 2026 Apr 28 13:21:13 | 63.3947 | 0.02706 | 15.1536 | 8.1052 | 352.4215 | 13.44721 | – |
| 2026 Apr 30 17:56 | 2026 Apr 28 13:21:13 | 63.3947 | 0.02706 | 15.1536 | 8.1052 | 352.4215 | 13.44721 | – |
| 2026 Apr 29 17:57 | 2026 Apr 22 14:34:23 | 63.3944 | 0.02700 | 16.1727 | 8.0941 | 352.4215 | 13.44721 | – |
| 2026 Apr 28 17:56 | 2026 Apr 22 14:34:23 | 63.3944 | 0.02700 | 16.1727 | 8.0941 | 352.4215 | 13.44721 | – |
| 2026 Apr 27 17:58 | 2026 Apr 22 14:34:23 | 63.3944 | 0.02700 | 16.1727 | 8.0941 | 352.4215 | 13.44721 | – |
| 2026 Apr 26 17:58 | 2026 Apr 22 14:34:23 | 63.3944 | 0.02700 | 16.1727 | 8.0941 | 352.4215 | 13.44721 | – |
| 2026 Apr 25 17:58 | 2026 Apr 22 14:34:23 | 63.3944 | 0.02700 | 16.1727 | 8.0941 | 352.4215 | 13.44721 | – |
| 2026 Apr 24 17:59 | 2026 Apr 22 14:34:23 | 63.3944 | 0.02700 | 16.1727 | 8.0941 | 352.4215 | 13.44721 | – |
| 2026 Apr 23 17:57 | 2026 Apr 19 02:41:23 | 63.3941 | 0.02697 | 16.7714 | 8.0841 | 352.4215 | 13.44721 | – |
| 2026 Apr 22 17:57 | 2026 Apr 19 02:41:23 | 63.3941 | 0.02697 | 16.7714 | 8.0841 | 352.4215 | 13.44721 | – |
| 2026 Apr 21 17:57 | 2026 Apr 19 02:41:23 | 63.3941 | 0.02697 | 16.7714 | 8.0841 | 352.4215 | 13.44721 | – |
| 2026 Apr 20 17:57 | 2026 Apr 19 02:41:23 | 63.3941 | 0.02697 | 16.7714 | 8.0841 | 352.4215 | 13.44721 | – |
| 2026 Apr 19 17:58 | 2026 Apr 19 02:41:23 | 63.3941 | 0.02697 | 16.7714 | 8.0841 | 352.4215 | 13.44721 | – |
| 2026 Apr 18 17:56 | 2026 Apr 12 17:12:02 | 63.3939 | 0.02691 | 17.8670 | 8.0703 | 352.4215 | 13.44721 | – |
| 2026 Apr 16 17:57 | 2026 Apr 12 17:12:02 | 63.3939 | 0.02691 | 17.8670 | 8.0703 | 352.4215 | 13.44721 | – |
| 2026 Apr 14 17:57 | 2026 Apr 12 17:12:02 | 63.3939 | 0.02691 | 17.8670 | 8.0703 | 352.4215 | 13.44721 | – |
| 2026 Apr 13 17:57 | 2026 Apr 12 17:12:02 | 63.3939 | 0.02691 | 17.8670 | 8.0703 | 352.4215 | 13.44721 | – |
| 2026 Apr 12 17:57 | 2026 Apr 05 19:13:06 | 63.3938 | 0.02685 | 19.0519 | 8.0512 | 352.4215 | 13.44721 | – |
| 2026 Apr 11 17:57 | 2026 Apr 05 19:13:06 | 63.3938 | 0.02685 | 19.0519 | 8.0512 | 352.4215 | 13.44721 | – |
| 2026 Apr 10 17:58 | 2026 Apr 05 19:13:06 | 63.3938 | 0.02685 | 19.0519 | 8.0512 | 352.4215 | 13.44721 | – |
| 2026 Apr 09 18:01 | 2026 Apr 05 19:13:06 | 63.3938 | 0.02685 | 19.0519 | 8.0512 | 352.4215 | 13.44721 | – |
| 2026 Apr 08 17:57 | 2026 Apr 05 19:13:06 | 63.3938 | 0.02685 | 19.0519 | 8.0512 | 352.4215 | 13.44721 | – |
| 2026 Apr 07 17:57 | 2026 Apr 02 07:20:06 | 63.3942 | 0.02682 | 19.6506 | 8.0456 | 352.4215 | 13.44721 | – |